[[{"header":{"parameterUnit":"m.s-1","parameterCategory":1,"la1":30.2991,"la2":30.254,"lo1":-89.0895,"lo2":-89.0444,"dy":0.0017,"dx":0.0017,"nx":28,"ny":28,"refTime":"2024-03-30T09:00:00:Z","depth":0,"parameterNumber":2,"parameterNumberName":"U-component_of_WINDS"},"data":[0,0,0,0,0,0,0,0,0,0,0,0,0,0,0,0,0,0,0,0,0,0,0,0,0,0,0,0,0,0,0,0,0,0,0,0,0,0,0,0,0,0,0,0,0,0,0,0,0,0,0,0,0,0,0,0,0,0,-0.3752,-0.3751,0,-0.372,-0.372,-0.3719,-0.3708,-0.3708,-0.3708,-0.3708,-0.3677,-0.3676,-0.3675,0,0,0,0,0,0,0,0,0,0,0,0,0,-0.3803,-0.3802,-0.3752,-0.3751,-0.3751,-0.372,-0.372,-0.3719,-0.3708,-0.3708,-0.3708,-0.3708,-0.3677,-0.3676,-0.3675,0,0,0,0,0,0,0,0,0,0,0,0,0,-0.3777,-0.3802,-0.3752,-0.3741,-0.374,-0.372,-0.372,-0.3719,-0.3708,-0.3708,-0.3708,-0.3708,-0.3678,-0.3676,-0.3675,-0.3663,0,0,-0.3671,-0.367,0,0,0,0,0,0,0,0,-0.3779,-0.3775,-0.3743,-0.3742,-0.3741,-0.3718,-0.3726,-0.37,-0.3708,-0.372,-0.3708,-0.3708,-0.3691,-0.3688,-0.3682,-0.3662,-0.3661,-0.3671,-0.367,-0.3669,-0.3669,0,0,0,0,0,0,0,-0.3781,-0.3777,-0.3739,-0.3743,-0.3741,-0.3739,-0.3735,-0.3721,-0.3705,-0.3719,-0.3718,-0.3714,-0.369,-0.3683,-0.3681,-0.366,-0.3671,-0.3669,-0.3669,-0.3668,-0.3628,-0.3628,0,0,0,0,0,0,-0.3784,-0.3778,-0.374,-0.3738,-0.376,-0.3738,-0.3734,-0.3725,-0.3705,-0.3702,-0.3714,-0.3714,-0.3686,-0.3683,-0.368,-0.3664,-0.3669,-0.3668,-0.3667,-0.3628,-0.3628,-0.3628,0,0,0,0,0,0,-0.3785,-0.3781,-0.3742,-0.3758,-0.3753,-0.3737,-0.3727,-0.3724,-0.3718,-0.3701,-0.3699,-0.3711,-0.3686,-0.3682,-0.3667,-0.3663,-0.3667,-0.3666,-0.3628,-0.3628,-0.3628,-0.3634,0,0,0,0,0,0,-0.3787,-0.3781,-0.3776,-0.3758,-0.3752,-0.3729,-0.3727,-0.3724,-0.3715,-0.3715,-0.3697,-0.3694,-0.3685,-0.3669,-0.3666,-0.3661,-0.3665,-0.3629,-0.3628,-0.3628,-0.3634,-0.3634,-0.3633,0,0,0,0,0,-0.3788,-0.378,-0.3776,-0.3772,-0.3746,-0.3729,-0.3726,-0.3715,-0.3715,-0.371,-0.3699,-0.3695,-0.3664,-0.3668,-0.3664,-0.3659,-0.3629,-0.3628,-0.3628,-0.3634,-0.3634,-0.3633,0,0,0,0,0,0,-0.3799,-0.3777,-0.3773,-0.3758,-0.3745,-0.3727,-0.3721,-0.3715,-0.3703,-0.3703,-0.369,-0.3687,-0.3673,-0.3664,-0.3669,-0.3646,-0.3646,-0.3645,-0.3652,-0.3652,-0.3652,-0.3654,-0.3664,0,0,0,0,0,-0.38,-0.3788,-0.3769,-0.3758,-0.3752,-0.3737,-0.373,-0.3722,-0.3709,-0.3704,-0.3692,-0.3679,-0.3667,-0.3659,-0.3646,-0.3632,-0.3628,-0.3627,-0.3627,-0.3627,-0.3626,-0.3617,-0.3616,-0.3626,-0.3626,-0.3626,0,0,-0.3801,-0.3788,-0.3781,-0.376,-0.3749,-0.3737,-0.3733,-0.3721,-0.3711,-0.3702,-0.3687,-0.3678,-0.3663,-0.3648,-0.3641,-0.3641,-0.3622,-0.3626,-0.3626,-0.3625,-0.3616,-0.3616,-0.3615,-0.3625,-0.3625,-0.3626,0,0,-0.3797,-0.3786,-0.3775,-0.3764,-0.3747,-0.3737,-0.3735,-0.3717,-0.371,-0.3695,-0.3687,-0.3676,-0.3655,-0.3644,-0.3636,-0.3627,-0.3622,-0.3623,-0.3622,-0.3614,-0.3613,-0.3613,-0.3609,-0.3608,-0.3622,-0.3622,-0.3622,0,-0.3802,-0.3782,-0.377,-0.3758,-0.3749,-0.3738,-0.3727,-0.3717,-0.3698,-0.3692,-0.3691,-0.3663,-0.3653,-0.3635,-0.3633,-0.3627,-0.3623,-0.3625,-0.3614,-0.3614,-0.3613,-0.3609,-0.3608,-0.3622,-0.3622,-0.3622,-0.3622,0,-0.3788,-0.3775,-0.3768,-0.3748,-0.3738,-0.3727,-0.3713,-0.3704,-0.3697,-0.3687,-0.3672,-0.3658,-0.3642,-0.3638,-0.3632,-0.3619,-0.3619,-0.3617,-0.3617,-0.3612,-0.3609,-0.3607,-0.3623,-0.3623,-0.3623,-0.3623,0,0,-0.3791,-0.3764,-0.3762,-0.3752,-0.3732,-0.3722,-0.371,-0.3693,-0.3686,-0.3673,-0.3662,-0.3643,-0.3641,-0.3631,-0.3624,-0.3616,-0.3609,-0.3615,-0.3614,-0.3614,-0.3594,-0.3597,-0.3595,-0.3606,-0.3605,-0.3605,-0.3596,0,-0.3785,-0.3762,-0.375,-0.3732,-0.3719,-0.3709,-0.3698,-0.3684,-0.3675,-0.3663,-0.3652,-0.3639,-0.3637,-0.3631,-0.3623,-0.3612,-0.3605,-0.3612,-0.3596,-0.3595,-0.36,-0.3593,-0.3596,-0.3587,-0.3594,-0.3594,-0.3594,0,-0.3775,-0.376,-0.3741,-0.3721,-0.3716,-0.3706,-0.369,-0.3678,-0.3663,-0.3656,-0.3645,-0.3637,-0.3624,-0.3624,-0.3605,-0.361,-0.3603,-0.3596,-0.3595,-0.3594,-0.3595,-0.3592,-0.3585,-0.3583,-0.3592,-0.3592,-0.3592,0,-0.3779,-0.3754,-0.3739,-0.3732,-0.3709,-0.3702,-0.3692,-0.3677,-0.3668,-0.3654,-0.3647,-0.3632,-0.3624,-0.3612,-0.36,-0.3602,-0.3582,-0.3582,-0.3577,-0.3577,-0.3574,-0.3574,-0.3565,-0.3568,-0.3568,-0.3568,-0.3568,0,-0.3773,-0.3761,-0.3741,-0.3732,-0.3718,-0.3704,-0.3692,-0.3681,-0.3667,-0.3656,-0.3646,-0.3636,-0.362,-0.3608,-0.3599,-0.3584,-0.3581,-0.3575,-0.3573,-0.3576,-0.3577,-0.3571,-0.3572,-0.3568,-0.3568,-0.3568,-0.3568,0,-0.3776,-0.3761,-0.3744,-0.3723,-0.3718,-0.3709,-0.3691,-0.3682,-0.3671,-0.3657,-0.3653,-0.3636,-0.3621,-0.3608,-0.3588,-0.3582,-0.3567,-0.3564,-0.3572,-0.3571,-0.3566,-0.3567,-0.3554,-0.3551,-0.3556,-0.3556,-0.3556,0,-0.3773,-0.3764,-0.3741,-0.3733,-0.3723,-0.3709,-0.3699,-0.3685,-0.3675,-0.3656,-0.3649,-0.3633,-0.362,-0.3596,-0.3582,-0.3567,-0.3564,-0.356,-0.3561,-0.3565,-0.3564,-0.3564,-0.3563,-0.356,-0.356,-0.356,-0.356,0,-0.377,-0.3763,-0.3749,-0.3732,-0.372,-0.3706,-0.3692,-0.3686,-0.3669,-0.3658,-0.3642,-0.3631,-0.3611,-0.3595,-0.3578,-0.3568,-0.3561,-0.356,-0.3558,-0.3561,-0.3566,-0.3563,-0.3572,-0.356,-0.356,-0.356,-0.356,-0.356,-0.377,-0.376,-0.3743,-0.3727,-0.3715,-0.3702,-0.3692,-0.3679,-0.3665,-0.3647,-0.3639,-0.3623,-0.3607,-0.3583,-0.3573,-0.356,-0.3559,-0.3557,-0.3556,-0.3555,-0.3556,-0.3568,-0.3557,-0.3557,-0.3557,-0.3557,-0.3557,0,-0.3766,-0.3754,-0.3739,-0.3719,-0.3707,-0.3701,-0.3685,-0.3675,-0.366,-0.3646,-0.3632,-0.3613,-0.3598,-0.3582,-0.3566,-0.3558,-0.3555,-0.3554,-0.3555,-0.3553,-0.3558,-0.3561,-0.3558,-0.3558,-0.3558,-0.3558,-0.3558,-0.3558,-0.3762,-0.3746,-0.3737,-0.3715,-0.3703,-0.3686,-0.3678,-0.3665,-0.3653,-0.3633,-0.3619,-0.3609,-0.3594,-0.3576,-0.3561,-0.3557,-0.3552,-0.3552,-0.3547,-0.3552,-0.3553,-0.3553,-0.3556,-0.3551,-0.3551,-0.3543,-0.3543,-0.3543]},{"header":{"parameterUnit":"m.s-1","parameterCategory":1,"la1":30.2991,"la2":30.254,"lo1":-89.0895,"lo2":-89.0444,"dy":0.0017,"dx":0.0017,"nx":28,"ny":28,"refTime":"2024-03-30T09:00:00:Z","depth":0,"parameterNumber":3,"parameterNumberName":"V-component_of_WINDS"},"data":[0,0,0,0,0,0,0,0,0,0,0,0,0,0,0,0,0,0,0,0,0,0,0,0,0,0,0,0,0,0,0,0,0,0,0,0,0,0,0,0,0,0,0,0,0,0,0,0,0,0,0,0,0,0,0,0,0,0,0.4081,0.4082,0,0.4261,0.4263,0.4265,0.4291,0.4289,0.4288,0.4286,0.4471,0.4477,0.4483,0,0,0,0,0,0,0,0,0,0,0,0,0,0.3758,0.3764,0.408,0.4083,0.4085,0.426,0.4263,0.4265,0.4291,0.4289,0.4287,0.4285,0.4469,0.4476,0.4484,0,0,0,0,0,0,0,0,0,0,0,0,0,0.3914,0.3766,0.408,0.4119,0.4124,0.426,0.4263,0.4266,0.4292,0.4289,0.4287,0.4284,0.4466,0.4475,0.4485,0.4595,0,0,0.4515,0.4519,0,0,0,0,0,0,0,0,0.3906,0.3926,0.4111,0.4116,0.4123,0.4251,0.4217,0.4376,0.4292,0.4228,0.4286,0.4283,0.44,0.4415,0.4454,0.4603,0.4611,0.4516,0.4521,0.4526,0.4528,0,0,0,0,0,0,0,0.3895,0.3919,0.4152,0.4114,0.4121,0.4127,0.4147,0.4247,0.4326,0.4233,0.4236,0.4257,0.4402,0.4444,0.4458,0.4614,0.4515,0.4524,0.453,0.4534,0.4862,0.4865,0,0,0,0,0,0,0.3877,0.3909,0.4146,0.4157,0.4006,0.4135,0.4157,0.4212,0.4325,0.4339,0.4259,0.4257,0.4429,0.4447,0.4465,0.4601,0.4525,0.4535,0.454,0.4859,0.4863,0.4866,0,0,0,0,0,0,0.387,0.3898,0.4139,0.4034,0.4065,0.4143,0.4205,0.4217,0.4259,0.4344,0.4358,0.4288,0.4428,0.4451,0.4562,0.4608,0.4539,0.4548,0.4856,0.4861,0.4865,0.4874,0,0,0,0,0,0,0.386,0.3895,0.3938,0.4035,0.4071,0.4233,0.4208,0.4222,0.4276,0.4276,0.4374,0.4388,0.4428,0.4548,0.4572,0.462,0.4555,0.4852,0.4858,0.4863,0.487,0.4878,0.4885,0,0,0,0,0,0.3849,0.3933,0.394,0.3968,0.4126,0.4236,0.4256,0.43,0.4279,0.4323,0.4377,0.4385,0.4599,0.4559,0.4586,0.4638,0.485,0.4856,0.4863,0.4867,0.4877,0.4885,0,0,0,0,0,0,0.384,0.3947,0.3955,0.4073,0.4145,0.424,0.4296,0.4309,0.4389,0.4385,0.4436,0.4458,0.4567,0.4613,0.4567,0.475,0.4722,0.4735,0.4716,0.4726,0.4734,0.4721,0.4563,0,0,0,0,0,0.3851,0.3932,0.4021,0.4116,0.4152,0.4218,0.4268,0.4295,0.4372,0.4402,0.4464,0.4538,0.4622,0.4676,0.4758,0.4876,0.4898,0.4925,0.4933,0.4939,0.4949,0.5016,0.5029,0.4888,0.4888,0.4887,0,0,0.3876,0.3945,0.3993,0.4116,0.4175,0.4258,0.4243,0.4331,0.4393,0.4416,0.4525,0.4572,0.4658,0.4773,0.4827,0.4816,0.4993,0.4947,0.4951,0.4959,0.5024,0.5037,0.5049,0.4892,0.4891,0.4891,0,0,0.3964,0.4024,0.411,0.417,0.4259,0.4302,0.4322,0.4416,0.4448,0.4558,0.4577,0.4651,0.4794,0.4854,0.4904,0.5014,0.5024,0.5039,0.5079,0.5143,0.5154,0.5164,0.5204,0.5218,0.5049,0.5049,0.5049,0,0.3985,0.411,0.4153,0.4241,0.4295,0.4318,0.4406,0.4462,0.4573,0.461,0.4595,0.4775,0.4835,0.4964,0.4991,0.503,0.5056,0.5029,0.5149,0.516,0.517,0.5208,0.5223,0.505,0.505,0.505,0.505,0,0.413,0.4216,0.4275,0.4382,0.4443,0.453,0.4587,0.4643,0.4664,0.4709,0.482,0.4892,0.4989,0.5021,0.5043,0.5154,0.5145,0.5139,0.5112,0.5184,0.5221,0.5236,0.5052,0.5051,0.5051,0.5051,0,0,0.4219,0.4348,0.437,0.4418,0.4518,0.4586,0.4673,0.4768,0.4815,0.4891,0.4966,0.5086,0.5082,0.5138,0.5166,0.5222,0.5306,0.521,0.5213,0.5226,0.5433,0.5438,0.5454,0.5312,0.5315,0.5318,0.5426,0,0.432,0.4478,0.4519,0.4653,0.4734,0.4757,0.4833,0.4902,0.4946,0.502,0.5068,0.5153,0.514,0.5174,0.523,0.5283,0.5348,0.5276,0.5384,0.5387,0.5363,0.5474,0.5479,0.5578,0.5441,0.5443,0.5445,0,0.4459,0.4537,0.4679,0.4768,0.4804,0.4872,0.4962,0.5033,0.5111,0.5139,0.5201,0.5225,0.5317,0.5284,0.5412,0.5362,0.5409,0.5441,0.5446,0.5459,0.5421,0.549,0.561,0.5626,0.5468,0.5466,0.5465,0,0.4511,0.4652,0.4755,0.4796,0.4902,0.495,0.4996,0.5073,0.5127,0.5205,0.5241,0.5328,0.5377,0.5444,0.549,0.5462,0.5615,0.5586,0.5641,0.564,0.5673,0.5671,0.5804,0.5701,0.57,0.57,0.57,0,0.462,0.4706,0.478,0.4844,0.4941,0.4987,0.5082,0.5129,0.5197,0.527,0.5294,0.5363,0.5419,0.5495,0.5531,0.5632,0.5654,0.5679,0.5688,0.5678,0.5675,0.571,0.5704,0.5704,0.5703,0.5702,0.5702,0,0.4696,0.4748,0.4862,0.4953,0.4978,0.5046,0.5123,0.5186,0.5229,0.5322,0.5346,0.5415,0.5505,0.5558,0.5671,0.5696,0.5808,0.5813,0.5782,0.5786,0.5839,0.5833,0.6,0.6024,0.5903,0.5905,0.5905,0,0.4763,0.4829,0.4927,0.4978,0.5025,0.5106,0.5161,0.5209,0.5265,0.536,0.5411,0.5503,0.5579,0.5722,0.5782,0.5869,0.5878,0.593,0.5891,0.5879,0.588,0.5876,0.5883,0.5937,0.5938,0.5939,0.5939,0,0.4876,0.4898,0.4977,0.5065,0.513,0.5201,0.5272,0.5312,0.5371,0.5433,0.5526,0.5585,0.5701,0.5792,0.5884,0.5932,0.5946,0.5951,0.5969,0.596,0.5939,0.5952,0.5801,0.5947,0.5947,0.5946,0.5946,0.5945,0.495,0.5011,0.5089,0.5175,0.5233,0.5299,0.5362,0.5413,0.5491,0.559,0.5613,0.571,0.5787,0.5912,0.5962,0.6039,0.603,0.6055,0.6062,0.6068,0.607,0.5925,0.6055,0.6055,0.6055,0.6055,0.6055,0,0.5066,0.5117,0.5196,0.5294,0.5362,0.5368,0.5447,0.5504,0.5589,0.5659,0.5734,0.584,0.5928,0.5994,0.6084,0.6133,0.6142,0.6155,0.6153,0.6164,0.6072,0.6049,0.6147,0.6147,0.6147,0.6147,0.6147,0.6147,0.5134,0.5237,0.5269,0.54,0.5451,0.5547,0.5591,0.5652,0.5708,0.5826,0.5899,0.5941,0.601,0.6105,0.6186,0.6203,0.6236,0.6249,0.6267,0.618,0.617,0.6161,0.6139,0.6255,0.6255,0.6353,0.6353,0.6354]}]]